TimeCST,TemperatureF,Dew PointF,Humidity,Sea Level PressureIn,VisibilityMPH,Wind Direction,Wind SpeedMPH,Gust SpeedMPH,PrecipitationIn,Events,Conditions,WindDirDegrees,DateUTC
12:55 AM,15.1,12.0,88,30.12,3.0,Calm,Calm,-,0.00,Snow,Light Snow,0,2012-12-28 06:55:00
1:55 AM,15.1,12.0,88,30.12,4.0,NNE,3.5,-,0.00,Snow,Light Snow,20,2012-12-28 07:55:00
2:55 AM,15.1,12.0,88,30.13,4.0,North,3.5,-,0.00,Snow,Light Snow,360,2012-12-28 08:55:00
3:55 AM,14.0,10.9,88,30.13,4.0,North,3.5,-,0.00,Snow,Light Snow,360,2012-12-28 09:55:00
4:55 AM,12.9,10.9,92,30.12,6.0,North,3.5,-,0.00,,Overcast,360,2012-12-28 10:55:00
5:55 AM,12.0,9.0,88,30.12,6.0,NW,5.8,-,N/A,,Overcast,320,2012-12-28 11:55:00
6:24 AM,12.2,10.4,92,30.05,7.0,NNW,5.8,-,N/A,,Overcast,330,2012-12-28 12:24:00
6:55 AM,12.0,9.0,88,30.12,6.0,NNW,6.9,-,N/A,,Overcast,330,2012-12-28 12:55:00
7:55 AM,10.9,9.0,92,30.14,7.0,NW,5.8,-,N/A,,Overcast,310,2012-12-28 13:55:00
8:55 AM,10.0,7.0,87,30.15,6.0,NW,8.1,-,N/A,,Overcast,310,2012-12-28 14:55:00
9:55 AM,10.9,7.0,84,30.16,5.0,NW,8.1,-,N/A,,Overcast,320,2012-12-28 15:55:00
10:55 AM,12.9,9.0,84,30.17,6.0,NNW,6.9,-,N/A,,Overcast,330,2012-12-28 16:55:00
11:55 AM,15.1,10.9,84,30.16,5.0,NW,6.9,-,N/A,,Overcast,320,2012-12-28 17:55:00
12:55 PM,16.0,12.0,84,30.14,5.0,NW,9.2,-,N/A,,Overcast,310,2012-12-28 18:55:00
1:40 PM,15.8,10.4,79,30.05,3.0,NNW,9.2,-,0.00,Snow,Light Snow,340,2012-12-28 19:40:00
1:55 PM,15.1,10.9,84,30.13,3.0,NW,10.4,-,0.00,Snow,Light Snow,320,2012-12-28 19:55:00
2:07 PM,15.8,10.4,79,30.05,2.5,NW,8.1,-,0.00,Snow,Light Snow,320,2012-12-28 20:07:00
2:17 PM,15.8,10.4,79,30.05,3.0,NNW,8.1,-,0.00,Snow,Light Snow,330,2012-12-28 20:17:00
2:55 PM,15.1,10.9,84,30.13,4.0,North,8.1,-,0.00,Snow,Light Snow,360,2012-12-28 20:55:00
3:55 PM,14.0,10.9,88,30.14,4.0,NW,9.2,-,0.00,Snow,Light Snow,320,2012-12-28 21:55:00
4:13 PM,14.0,10.4,86,30.06,2.5,NNW,6.9,-,0.00,Snow,Light Snow,330,2012-12-28 22:13:00
4:22 PM,14.0,10.4,86,30.06,3.0,WNW,5.8,-,0.00,Snow,Light Snow,290,2012-12-28 22:22:00
4:55 PM,12.9,10.0,88,30.15,4.0,NW,6.9,-,0.00,,Overcast,320,2012-12-28 22:55:00
5:25 PM,12.2,10.4,92,30.07,5.0,WNW,3.5,-,0.00,Snow,Light Snow,300,2012-12-28 23:25:00
5:55 PM,12.9,10.0,88,30.16,8.0,West,8.1,-,0.00,,Overcast,280,2012-12-28 23:55:00
6:55 PM,10.9,8.1,88,30.16,8.0,Calm,Calm,-,N/A,,Overcast,0,2012-12-29 00:55:00
7:04 PM,10.4,6.8,85,30.08,8.0,Calm,Calm,-,N/A,,Overcast,0,2012-12-29 01:04:00
7:55 PM,9.0,7.0,92,30.17,7.0,West,3.5,-,0.00,,Overcast,260,2012-12-29 01:55:00
8:55 PM,7.0,5.0,92,30.16,6.0,SSW,3.5,-,N/A,,Clear,210,2012-12-29 02:55:00
9:55 PM,3.9,1.0,88,30.17,6.0,SSW,3.5,-,N/A,,Clear,210,2012-12-29 03:55:00
10:44 PM,3.2,1.4,92,30.08,2.5,SSW,3.5,-,N/A,,Clear,210,2012-12-29 04:44:00
10:52 PM,3.2,-0.4,85,30.08,6.0,SSW,4.6,-,N/A,,Clear,200,2012-12-29 04:52:00
10:55 PM,3.0,1.0,91,30.17,6.0,SSW,4.6,-,N/A,,Clear,200,2012-12-29 04:55:00
11:13 PM,3.2,-0.4,85,30.09,2.5,SW,3.5,-,N/A,,Partly Cloudy,220,2012-12-29 05:13:00
11:27 PM,3.2,1.4,92,30.08,6.0,Calm,Calm,-,N/A,,Partly Cloudy,0,2012-12-29 05:27:00
11:55 PM,1.9,-0.9,88,30.16,6.0,Calm,Calm,-,N/A,,Clear,0,2012-12-29 05:55:00